FW9086 Weather Reports


Display with metric or nautical units.
time (UTC)temp
F
wind
direction
speed
MPH
gust
MPH
rain 1hr
in
rain 24hr
in
rain mn
in
humidity
%
barometer
mb
20260831053352 73 166 0.0 0.0 0.00 0.00 0.00 94 1015.7
20260831052847 74 167 0.0 0.0 0.00 0.00 0.00 94 1015.8
20260831052346 74 151 0.0 0.0 0.00 0.00 0.00 93 1016.0
20260831051844 74 151 0.0 0.0 0.00 0.00 0.00 92 1016.2
20260831051343 73 151 0.0 0.0 0.00 0.00 0.00 91 1016.1
20260831050838 73 151 0.0 0.0 0.00 0.00 0.00 90 1015.8
20260831050337 74 151 0.0 0.0 0.00 0.00 0.00 90 1015.9
20260831045832 74 150 0.0 0.0 0.00 0.00 0.00 90 1015.9
20260831045326 74 150 0.0 0.0 0.00 0.00 0.00 90 1015.8
20260831044821 74 149 0.0 0.0 0.00 0.00 0.00 90 1015.8
20260831044316 74 147 0.0 0.0 0.00 0.00 0.00 90 1015.8
20260831043812 74 166 0.0 0.0 0.00 0.00 0.00 90 1015.9
20260831043312 74 168 0.0 0.0 0.00 0.00 0.00 91 1015.7
20260831042807 74 163 0.0 0.0 0.00 0.00 0.00 91 1015.8
20260831042307 74 146 0.0 0.0 0.00 0.00 0.00 91 1015.7
20260831041802 73 148 0.0 0.0 0.00 0.00 0.00 91 1015.4
20260831041301 73 148 0.0 0.0 0.00 0.00 0.00 91 1015.6
20260831040756 73 147 0.0 0.0 0.00 0.00 0.00 92 1015.4
20260831040255 73 155 0.0 0.0 0.00 0.00 0.00 92 1015.6
20260831035754 73 166 0.0 0.0 0.00 0.00 0.00 93 1015.4
20260831035253 74 140 0.0 0.0 0.00 0.00 0.00 92 1015.4
20260831034752 74 157 0.0 0.0 0.00 0.00 0.00 93 1015.3
20260831034248 74 157 0.0 0.0 0.00 0.00 0.00 91 1015.2
20260831033743 74 155 0.0 0.0 0.00 0.00 0.00 90 1015.4
20260831033243 74 151 0.0 0.0 0.00 0.00 0.00 89 1015.4
20260831032738 74 152 0.0 0.0 0.00 0.00 0.00 89 1015.2
20260831032233 74 152 0.0 0.0 0.00 0.00 0.00 89 1015.3
20260831031728 74 154 0.0 0.0 0.00 0.00 0.00 90 1015.4
20260831031223 74 155 0.0 0.0 0.00 0.00 0.00 90 1015.4
20260831030722 74 155 0.0 0.0 0.00 0.00 0.00 89 1015.6
20260831030221 75 155 0.0 0.0 0.00 0.00 0.00 88 1015.6
20260831025720 75 155 0.0 0.0 0.00 0.00 0.00 87 1015.8
20260831025214 75 155 0.0 0.0 0.00 0.00 0.00 87 1015.9
20260831024711 75 155 0.0 0.0 0.00 0.00 0.00 87 1015.6
20260831024209 75 155 0.0 0.0 0.00 0.00 0.00 88 1015.7
20260831023708 74 151 0.0 0.0 0.00 0.00 0.00 87 1015.7
20260831023207 74 148 0.0 0.0 0.00 0.00 0.00 88 1015.8
20260831022703 75 149 0.0 0.0 0.00 0.00 0.00 88 1015.8
20260831022157 75 148 0.0 0.0 0.00 0.00 0.00 88 1015.6
20260831021656 75 156 0.0 0.0 0.00 0.00 0.00 89 1015.9
20260831021152 75 156 0.0 0.0 0.00 0.00 0.00 89 1015.7
20260831020648 75 155 0.0 0.0 0.00 0.00 0.00 87 1015.8
20260831020142 75 155 0.0 0.0 0.00 0.00 0.00 86 1015.8
20260831015638 75 155 0.0 0.0 0.00 0.00 0.00 86 1015.6
20260831015137 76 155 0.0 0.0 0.00 0.00 0.00 86 1015.7
20260831014632 76 155 0.0 0.0 0.00 0.00 0.00 85 1015.7
20260831014127 76 155 0.0 0.0 0.00 0.00 0.00 84 1015.6
20260831013624 76 155 0.0 0.0 0.00 0.00 0.00 84 1015.6
20260831013123 76 156 0.0 0.0 0.00 0.00 0.00 84 1015.6
20260831012618 76 154 0.0 0.0 0.00 0.00 0.00 83 1015.4
20260831012113 77 154 0.0 0.0 0.00 0.00 0.00 83 1015.4
20260831011612 77 154 0.0 0.0 0.00 0.00 0.00 83 1015.3
20260831011108 77 154 0.0 0.0 0.00 0.00 0.00 83 1015.3
20260831010604 77 154 0.0 0.0 0.00 0.00 0.00 83 1015.0
20260831010100 77 154 0.0 0.0 0.00 0.00 0.00 83 1015.3
20260831005559 77 154 0.0 0.0 0.00 0.00 0.00 83 1015.1
20260831005054 77 156 0.0 0.0 0.00 0.00 0.00 83 1015.1
20260831004550 77 156 0.0 0.0 0.00 0.00 0.00 82 1015.1
20260831004045 77 156 0.0 0.0 0.00 0.00 0.00 82 1015.2
20260831003542 78 156 0.0 0.0 0.00 0.00 0.00 81 1015.0
20260831003037 78 156 0.0 0.0 0.00 0.00 0.00 80 1015.2
20260831002536 78 156 0.0 0.0 0.00 0.00 0.00 79 1015.1
20260831002031 79 156 0.0 0.0 0.00 0.00 0.00 79 1015.3
20260831001526 79 152 0.0 0.0 0.00 0.00 0.00 78 1015.0
20260831001023 79 151 0.0 0.0 0.00 0.00 0.00 78 1015.2
20260831000519 79 151 0.0 0.0 0.00 0.00 0.00 77 1014.9
20260831000018 80 146 0.0 0.0 0.00 0.00 0.00 76 1015.1
20260830235518 80 157 0.0 0.0 0.00 0.00 0.00 75 1015.1
20260830235013 80 155 0.0 0.0 0.00 0.00 0.00 75 1015.2
20260830234508 80 155 0.0 0.0 0.00 0.00 0.00 75 1015.0
20260830234003 80 147 0.0 0.0 0.00 0.00 0.00 75 1015.3
20260830233459 81 143 0.0 0.0 0.00 0.00 0.00 75 1015.3
20260830232954 81 147 0.0 0.0 0.00 0.00 0.00 75 1015.0
20260830232450 81 156 0.0 0.0 0.00 0.00 0.00 74 1015.1
20260830231946 82 156 0.0 0.0 0.00 0.00 0.00 75 1015.3
20260830231442 82 169 0.0 0.0 0.00 0.00 0.00 74 1015.3
20260830230941 82 162 0.0 0.0 0.00 0.00 0.00 73 1015.3
20260830230436 82 152 0.0 0.0 0.00 0.00 0.00 73 1015.3
20260830225935 82 150 0.0 0.0 0.00 0.00 0.00 73 1015.3
20260830225431 82 151 0.0 0.0 0.00 0.00 0.00 73 1015.3
20260830224926 82 156 0.0 0.0 0.00 0.00 0.00 73 1015.2
20260830224424 82 174 0.0 1.0 0.00 0.00 0.00 72 1015.1
20260830223921 83 154 0.0 0.0 0.00 0.00 0.00 72 1015.2
20260830223418 83 132 0.0 0.0 0.00 0.00 0.00 73 1015.0
20260830222916 83 151 0.0 0.0 0.00 0.00 0.00 72 1015.1
20260830222412 83 162 0.0 0.0 0.00 0.00 0.00 71 1015.0
20260830221908 84 179 1.0 1.0 0.00 0.00 0.00 72 1014.9
20260830221404 84 183 0.0 0.0 0.00 0.00 0.00 71 1015.0
20260830220859 84 192 1.0 2.0 0.00 0.00 0.00 67 1015.0
20260830220359 85 159 0.0 0.0 0.00 0.00 0.00 71 1014.9
20260830215856 85 172 1.0 1.0 0.00 0.00 0.00 67 1014.8
20260830215356 85 166 0.0 1.0 0.00 0.00 0.00 68 1014.9
20260830214851 85 181 0.0 1.0 0.00 0.00 0.00 68 1014.9
20260830214346 85 237 1.0 2.0 0.00 0.00 0.00 67 1015.0
20260830213841 86 195 1.0 1.0 0.00 0.00 0.00 69 1014.7
20260830213336 86 166 0.0 0.0 0.00 0.00 0.00 70 1014.7
20260830212832 86 174 0.0 0.0 0.00 0.00 0.00 70 1014.7
20260830212328 86 119 0.0 1.0 0.00 0.00 0.00 68 1014.8
20260830211826 84 152 0.0 0.0 0.00 0.00 0.00 74 1015.0
20260830211321 84 159 0.0 0.0 0.00 0.00 0.00 72 1014.8
20260830210817 85 159 1.0 2.0 0.00 0.00 0.00 66 1015.2
20260830210316 85 195 0.0 0.0 0.00 0.00 0.00 69 1014.8
20260830205814 85 174 0.0 0.0 0.00 0.00 0.00 73 1015.1
20260830205314 85 155 0.0 0.0 0.00 0.00 0.00 70 1015.2
20260830204809 86 155 0.0 0.0 0.00 0.00 0.00 68 1015.1
20260830204308 86 178 0.0 1.0 0.00 0.00 0.00 66 1015.1
20260830203804 85 204 1.0 1.0 0.00 0.00 0.00 66 1015.2
20260830203300 83 184 0.0 0.0 0.00 0.00 0.00 68 1015.3
20260830202759 82 194 0.0 1.0 0.00 0.00 0.00 73 1015.5
20260830202255 83 178 0.0 0.0 0.00 0.00 0.00 75 1015.4
20260830201754 83 182 1.0 1.0 0.00 0.00 0.00 70 1015.5
20260830201249 84 185 0.0 0.0 0.00 0.00 0.00 70 1015.8
20260830200745 84 177 1.0 1.0 0.00 0.00 0.00 73 1015.9
20260830200244 84 188 1.0 1.0 0.00 0.00 0.00 67 1015.7
20260830195740 85 185 0.0 1.0 0.00 0.00 0.00 67 1015.7
20260830195238 85 150 0.0 1.0 0.00 0.00 0.00 70 1015.9
20260830194736 85 172 0.0 0.0 0.00 0.00 0.00 72 1016.0
20260830194231 86 176 0.0 0.0 0.00 0.00 0.00 67 1016.3
20260830193726 87 246 1.0 1.0 0.00 0.00 0.00 63 1016.2
20260830193220 88 189 1.0 1.0 0.00 0.00 0.00 66 1016.3
20260830192716 87 174 0.0 1.0 0.00 0.00 0.00 64 1016.4
20260830192211 85 187 1.0 1.0 0.00 0.00 0.00 67 1016.5
20260830191707 84 157 0.0 0.0 0.00 0.00 0.00 74 1016.4
20260830191201 85 159 0.0 0.0 0.00 0.00 0.00 70 1016.4
20260830190656 85 138 0.0 0.0 0.00 0.00 0.00 71 1016.6
20260830190152 85 160 2.0 2.0 0.00 0.00 0.00 69 1016.8
20260830185649 84 157 0.0 0.0 0.00 0.00 0.00 73 1016.7
20260830185146 84 157 0.0 0.0 0.00 0.00 0.00 72 1017.2
20260830184644 84 150 0.0 0.0 0.00 0.00 0.00 73 1017.0
20260830184139 84 143 0.0 0.0 0.00 0.00 0.00 74 1017.1
20260830183639 84 155 0.0 1.0 0.00 0.00 0.00 69 1017.0
20260830183135 84 159 0.0 1.0 0.00 0.00 0.00 73 1017.2
20260830182635 84 156 0.0 0.0 0.00 0.00 0.00 69 1017.1
20260830182132 84 156 0.0 0.0 0.00 0.00 0.00 69 1017.4
20260830181628 84 153 0.0 0.0 0.00 0.00 0.00 69 1017.3
20260830181127 84 157 1.0 1.0 0.00 0.00 0.00 67 1017.4
20260830180626 84 146 1.0 1.0 0.00 0.00 0.00 73 1017.3
20260830180126 83 159 0.0 1.0 0.00 0.00 0.00 73 1017.3
20260830175625 82 157 0.0 0.0 0.00 0.00 0.00 76 1017.6
20260830175121 81 156 0.0 0.0 0.00 0.00 0.00 76 1017.7
20260830174616 81 154 0.0 0.0 0.00 0.00 0.00 76 1017.8
20260830174112 80 156 0.0 0.0 0.00 0.00 0.00 81 1017.9
20260830173606 81 149 0.0 0.0 0.00 0.00 0.00 80 1017.9
20260830173101 81 157 0.0 0.0 0.00 0.00 0.00 77 1017.8
20260830172559 80 157 0.0 0.0 0.00 0.00 0.00 79 1018.1
20260830172054 79 156 0.0 0.0 0.00 0.00 0.00 79 1017.8
20260830171549 78 156 0.0 0.0 0.00 0.00 0.00 79 1018.2
20260830171044 78 156 0.0 0.0 0.00 0.00 0.00 84 1018.1
20260830170544 77 156 0.0 0.0 0.00 0.00 0.00 82 1018.2
20260830170043 77 157 0.0 0.0 0.00 0.00 0.00 81 1018.2
20260830165538 77 156 0.0 0.0 0.00 0.00 0.00 84 1018.3
20260830165034 77 156 0.0 0.0 0.00 0.00 0.00 85 1018.2
20260830164530 77 156 0.0 0.0 0.00 0.00 0.00 82 1018.4
20260830164026 78 157 0.0 0.0 0.00 0.00 0.00 80 1018.6
20260830163523 78 156 0.0 0.0 0.00 0.00 0.00 81 1018.5
20260830163022 78 150 0.0 0.0 0.00 0.00 0.00 81 1018.5
20260830162518 78 156 0.0 0.0 0.00 0.00 0.00 82 1018.6
20260830162013 78 156 0.0 0.0 0.00 0.00 0.00 84 1018.4
20260830161508 78 156 0.0 0.0 0.00 0.00 0.00 83 1018.3
20260830161002 78 155 0.0 0.0 0.00 0.00 0.00 85 1018.4
20260830160459 78 156 0.0 0.0 0.00 0.00 0.00 81 1018.6
20260830155953 77 157 0.0 0.0 0.00 0.00 0.00 84 1018.4
20260830155449 77 157 0.0 0.0 0.00 0.00 0.00 81 1018.4
20260830154944 77 156 0.0 0.0 0.00 0.00 0.00 85 1018.5
20260830154440 76 156 0.0 0.0 0.00 0.00 0.00 84 1018.4
20260830153936 76 156 0.0 0.0 0.00 0.00 0.00 84 1018.3
20260830153432 77 156 0.0 0.0 0.00 0.00 0.00 82 1018.4
20260830152931 77 156 0.0 0.0 0.00 0.00 0.00 81 1018.5
20260830152426 77 151 0.0 0.0 0.00 0.00 0.00 79 1018.3
20260830151925 78 154 0.0 0.0 0.00 0.00 0.00 79 1018.1
20260830151426 79 154 0.0 0.0 0.00 0.00 0.00 80 1018.2
20260830150920 80 154 0.0 0.0 0.00 0.00 0.00 81 1017.9
20260830150420 80 153 0.0 0.0 0.00 0.00 0.00 78 1017.8
20260830145914 80 157 0.0 1.0 0.00 0.00 0.00 79 1017.6
20260830145409 81 150 0.0 0.0 0.00 0.00 0.00 75 1017.3
20260830144904 81 157 0.0 1.0 0.00 0.00 0.00 74 1017.3
20260830144401 80 158 0.0 0.0 0.00 0.00 0.00 78 1017.2
20260830143855 80 157 0.0 0.0 0.00 0.00 0.00 80 1017.2
20260830143350 79 151 0.0 0.0 0.00 0.00 0.00 77 1017.4
20260830142849 79 159 1.0 1.0 0.00 0.00 0.00 75 1017.3
20260830142344 77 150 0.0 0.0 0.00 0.00 0.00 81 1017.2
20260830141839 76 155 1.0 1.0 0.00 0.00 0.00 80 1016.8
20260830141335 74 149 0.0 0.0 0.00 0.00 0.00 87 1016.8
20260830140830 74 154 0.0 1.0 0.00 0.00 0.00 85 1016.8
20260830140325 73 154 0.0 0.0 0.00 0.00 0.00 87 1017.0
20260830135819 73 153 0.0 0.0 0.00 0.00 0.00 90 1017.0
20260830135314 72 153 0.0 0.0 0.00 0.00 0.00 90 1017.0
20260830134810 72 154 0.0 0.0 0.00 0.00 0.00 89 1017.0
20260830134310 71 153 0.0 0.0 0.00 0.00 0.00 91 1017.1
20260830133806 71 153 0.0 0.0 0.00 0.00 0.00 92 1017.2
20260830133301 71 149 0.0 0.0 0.00 0.00 0.00 92 1016.8
20260830132757 71 150 0.0 0.0 0.00 0.00 0.00 93 1017.2
20260830132253 71 150 0.0 0.0 0.00 0.00 0.00 93 1017.2
20260830131751 71 155 0.0 0.0 0.00 0.00 0.00 94 1017.2
20260830131246 70 154 0.0 0.0 0.00 0.00 0.00 94 1017.2
20260830130742 70 154 0.0 0.0 0.00 0.00 0.00 95 1017.1
20260830130241 69 154 0.0 1.0 0.00 0.00 0.00 96 1017.4
20260830125736 69 152 0.0 0.0 0.00 0.00 0.00 98 1017.4
20260830125231 68 150 0.0 0.0 0.00 0.00 0.00 99 1017.2
20260830124728 67 151 0.0 0.0 0.00 0.00 0.00 99 1017.4
20260830124224 66 152 0.0 0.0 0.00 0.00 0.00 99 1017.4
20260830123721 66 151 0.0 0.0 0.00 0.00 0.00 99 1017.1
20260830123217 66 151 0.0 0.0 0.00 0.00 0.00 99 1017.0
20260830122714 66 152 0.0 0.0 0.00 0.00 0.00 99 1017.1
20260830122209 65 152 0.0 0.0 0.00 0.00 0.00 99 1017.0
20260830121704 65 152 0.0 0.0 0.00 0.00 0.00 99 1017.0
20260830121204 65 151 0.0 0.0 0.00 0.00 0.00 99 1017.1
20260830120659 65 151 0.0 0.0 0.00 0.00 0.00 99 1017.0
20260830120155 64 150 0.0 0.0 0.00 0.00 0.00 99 1016.8
20260830115651 64 150 0.0 0.0 0.00 0.00 0.00 99 1017.0
20260830115146 64 150 0.0 0.0 0.00 0.00 0.00 99 1017.0
20260830114643 64 150 0.0 0.0 0.00 0.00 0.00 99 1017.2
20260830114143 64 150 0.0 0.0 0.00 0.00 0.00 99 1017.1
20260830113639 64 150 0.0 0.0 0.00 0.00 0.00 99 1017.1
20260830113133 64 150 0.0 0.0 0.00 0.00 0.00 99 1017.1
20260830112629 64 150 0.0 0.0 0.00 0.00 0.00 99 1017.1
20260830112125 64 150 0.0 0.0 0.00 0.00 0.00 99 1017.0
20260830111621 64 150 0.0 0.0 0.00 0.00 0.00 99 1017.0
20260830111116 64 150 0.0 0.0 0.00 0.00 0.00 99 1016.6
20260830110616 64 150 0.0 0.0 0.00 0.00 0.00 99 1016.6
20260830110112 64 150 0.0 0.0 0.00 0.00 0.00 99 1016.5
20260830105606 64 150 0.0 0.0 0.00 0.00 0.00 99 1016.4
20260830105103 64 150 0.0 0.0 0.00 0.00 0.00 99 1016.4
20260830104559 64 149 0.0 0.0 0.00 0.00 0.00 99 1016.4
20260830104056 63 151 0.0 0.0 0.00 0.00 0.00 99 1016.4
20260830103555 63 151 0.0 0.0 0.00 0.00 0.00 99 1016.3
20260830103055 63 149 0.0 0.0 0.00 0.00 0.00 99 1016.5
20260830102554 63 150 0.0 0.0 0.00 0.00 0.00 99 1016.2
20260830102050 64 150 0.0 0.0 0.00 0.00 0.00 99 1016.4
20260830101545 63 151 0.0 0.0 0.00 0.00 0.00 99 1016.3
20260830101040 64 150 0.0 0.0 0.00 0.00 0.00 99 1016.3
20260830100539 63 150 0.0 0.0 0.00 0.00 0.00 99 1016.4
20260830100039 63 150 0.0 0.0 0.00 0.00 0.00 99 1016.4
20260830095534 63 150 0.0 0.0 0.00 0.00 0.00 99 1016.3
20260830095030 63 150 0.0 0.0 0.00 0.00 0.00 99 1016.2
20260830094526 63 150 0.0 0.0 0.00 0.00 0.00 99 1016.1
20260830094021 63 150 0.0 0.0 0.00 0.00 0.00 98 1016.1
20260830093516 63 150 0.0 0.0 0.00 0.00 0.00 98 1016.3
20260830093012 64 151 0.0 0.0 0.00 0.00 0.00 98 1016.3
20260830092512 64 151 0.0 0.0 0.00 0.00 0.00 98 1016.3
20260830092009 64 151 0.0 0.0 0.00 0.00 0.00 98 1016.2
20260830091504 64 151 0.0 0.0 0.00 0.00 0.00 98 1016.4
20260830091003 64 151 0.0 0.0 0.00 0.00 0.00 98 1016.6
20260830090459 64 151 0.0 0.0 0.00 0.00 0.00 98 1016.6
20260830085954 64 151 0.0 0.0 0.00 0.00 0.00 98 1016.5
20260830085453 64 151 0.0 0.0 0.00 0.00 0.00 98 1016.5
20260830084949 64 150 0.0 0.0 0.00 0.00 0.00 98 1016.7
20260830084444 64 151 0.0 0.0 0.00 0.00 0.00 97 1016.7
20260830083940 64 151 0.0 0.0 0.00 0.00 0.00 97 1016.6
20260830083435 64 151 0.0 0.0 0.00 0.00 0.00 97 1016.6
20260830082935 64 151 0.0 0.0 0.00 0.00 0.00 97 1016.6
20260830082430 64 153 0.0 0.0 0.00 0.00 0.00 97 1016.5
20260830081925 64 153 0.0 0.0 0.00 0.00 0.00 97 1016.6
20260830081420 64 152 0.0 0.0 0.00 0.00 0.00 97 1016.5
20260830080919 64 151 0.0 0.0 0.00 0.00 0.00 97 1016.3
20260830080416 64 152 0.0 0.0 0.00 0.00 0.00 97 1016.6
20260830075915 64 152 0.0 0.0 0.00 0.00 0.00 97 1016.7
20260830075410 64 152 0.0 0.0 0.00 0.00 0.00 97 1016.7
20260830074905 64 151 0.0 0.0 0.00 0.00 0.00 97 1016.7
20260830074355 64 151 0.0 0.0 0.00 0.00 0.00 97 1016.8
20260830073851 65 152 0.0 0.0 0.00 0.00 0.00 97 1017.0
20260830073347 64 151 0.0 0.0 0.00 0.00 0.00 97 1016.7
20260830072841 64 152 0.0 0.0 0.00 0.00 0.00 97 1016.7
20260830072337 64 151 0.0 0.0 0.00 0.00 0.00 96 1016.7
20260830071832 64 151 0.0 0.0 0.00 0.00 0.00 96 1017.0
20260830071331 64 151 0.0 0.0 0.00 0.00 0.00 96 1016.8
20260830070830 64 150 0.0 0.0 0.00 0.00 0.00 96 1017.2
20260830070325 64 150 0.0 0.0 0.00 0.00 0.00 96 1017.0
20260830065824 64 152 0.0 0.0 0.00 0.00 0.00 96 1017.1
20260830065319 64 152 0.0 0.0 0.00 0.00 0.00 96 1017.0
20260830064817 64 151 0.0 0.0 0.00 0.00 0.00 96 1017.1
20260830064313 64 151 0.0 0.0 0.00 0.00 0.00 95 1017.0
20260830063813 64 151 0.0 0.0 0.00 0.00 0.00 95 1017.1
20260830063308 64 151 0.0 0.0 0.00 0.00 0.00 95 1017.1
20260830062802 65 150 0.0 0.0 0.00 0.00 0.00 95 1017.0
20260830062305 65 150 0.0 0.0 0.00 0.00 0.00 95 1017.2
20260830061756 64 150 0.0 0.0 0.00 0.00 0.00 95 1017.3
20260830061252 65 150 0.0 0.0 0.00 0.00 0.00 95 1017.3
20260830060748 65 150 0.0 0.0 0.00 0.00 0.00 95 1017.5
20260830060245 65 151 0.0 0.0 0.00 0.00 0.00 95 1017.6
20260830055739 65 151 0.0 0.0 0.00 0.00 0.00 94 1017.6
20260830055231 65 151 0.0 0.0 0.00 0.00 0.00 94 1017.6
20260830054730 65 151 0.0 0.0 0.00 0.00 0.00 94 1017.7
20260830054226 66 151 0.0 0.0 0.00 0.00 0.00 94 1017.5
20260830053722 66 151 0.0 0.0 0.00 0.00 0.00 94 1017.4